Hourly Data Report for June 09, 2021

DRYDEN REGIONAL
ONTARIO
Current Station Operator: NAVCAN

49°49'39.000" N
92°44'39.000" W
412.70 m
6032125
71527
YHD

Download Data

Hourly Data (June 2021)
Hourly Data Report for June 9, 2021
TIME
LST
Temp Definition
°C
Dew Point Definition
°C
Rel Hum Definition
%
Precip. Amount Definition
mm

Wind Dir Definition
10's deg

Wind Spd Definition
km/h
Visibility Definition
km
Stn Press Definition
kPa
Hmdx Definition


Wind Chill Definition


Weather Definition


00:00 18.1 12.0 67 0.0 6 8 16.1 97.03     LegendNANA
01:00 19.3 10.8 57 0.0 9 11 16.1 96.99     LegendNANA
02:00 20.5 11.3 55 0.0 12 21 16.1 96.95     LegendNANA
03:00 19.9 11.8 59 0.0 14 17 16.1 96.99     LegendNANA
04:00 19.1 11.7 62 0.0 12 11 16.1 97.04     LegendNANA
05:00 18.9 12.0 64 0.0 11 11 16.1 97.02     LegendNANA
06:00 20.0 12.6 62 0.0 13 17 16.1 97.06     LegendNANA
07:00 20.6 12.7 60 0.0 15 21 16.1 97.08     LegendNANA
08:00
09:00
10:00
11:00
12:00 18.9 17.4 91 2.3 6 13 16.1 96.98     Rain
13:00 21.9 18.1 79 0.0 8 22 16.1 96.80 28   LegendNANA
14:00 24.9 17.0 61 0.0 10 15 16.1 96.67 30   LegendNANA
15:00 26.5 16.6 54 0.0 13 30 16.1 96.56 32   LegendNANA
16:00 24.4 16.2 60 0.0 11 13 16.1 96.54 29   LegendNANA
17:00 19.1 18.6 97 4.8 9 13 14.5 96.61     Rain
18:00 20.5 19.5 94 0.5 10 13 16.1 96.48 28   LegendNANA
19:00 20.6 19.0 90 0.2 14 26 16.1 96.41 27   LegendNANA
20:00 19.8 18.5 92 0.0 16 24 16.1 96.36     LegendNANA
21:00 19.1 17.9 92 0.0 19 18 16.1 96.38     LegendNANA
22:00 18.9 18.0 95 0.0 20 22 16.1 96.40     LegendNANA
23:00 19.2 18.1 93 0.0 21 21 16.1 96.45     LegendNANA

Notes on Data Quality.

Legend

  • E = Estimated
  • M = Missing
  • NA = Not Available*
  • [empty] = Indicates an unobserved value
Date modified: